QPF
0.00 0.00 0.00 0.00 0.00 0.00 0.00 0.00 0.00 0.00 0.00 0.00 0.00 0.00 0.00 0.00 0.00 0.00 0.00 0.00 0.00 0.00
0.00 0.00 0.00 0.00 0.00 0.00 0.00 0.00 0.00 0.00 0.00 0.00 0.00 0.00 0.00 0.00 0.00 0.00 0.01 0.00 0.00 0.00
0.00 0.00 0.00 0.00 0.00 0.00 0.00 0.00 0.00 0.00 0.00 0.00 0.00 0.00 0.00 0.00 0.00 0.00 0.00 0.00 0.00 0.00
0.00 0.00 0.00 0.00 0.00 0.00 0.00 0.00 0.00 0.00 0.00 0.01 0.01 0.01 0.00 0.00 0.00 0.00 0.00 0.00 0.00 0.00
0.00 0.00 0.00 0.00 0.00 0.00 0.00 0.00 0.00 0.00 0.00 0.00 0.00 0.00 0.00 0.00 0.00 0.00 0.00 0.00 0.00 0.00
0.00 0.00 0.00 0.00 0.00 0.00 0.00 0.00 0.00 0.00 0.00 0.00 0.00 0.00 0.00 0.00 0.00 0.00 0.00 0.00 0.00 0.00
0.00 0.00 0.00 0.00 0.00 0.00 0.00 0.00 0.00 0.00 0.00 0.00 0.00 0.00 0.00 0.00 0.00 0.00 0.00 0.00 0.00 0.00
0.00 0.00 0.00 0.00 0.00 0.00 0.00 0.00 0.00 0.00 0.00 0.00 0.00 0.00 0.00 0.00 0.00 0.00 0.00 0.00 0.00 0.00
0.00 0.00 0.00 0.00 0.00 0.00 0.00 0.00 0.00 0.00 0.00 0.00 0.00 0.00 0.00 0.00 0.00 0.00 0.00 0.00 0.00 0.00
0.00 0.00 0.00 0.00 0.00 0.00 0.00 0.00 0.00 0.00 0.00 0.00 0.00 0.00 0.00 0.00 0.00 0.00 0.00 0.00 0.00 0.00
0.00 0.00 0.00 0.00 0.00 0.00 0.00 0.00 0.00 0.00 0.00 0.00 0.00 0.00 0.00 0.00 0.00 0.00 0.00 0.00 0.00 0.00
0.00 0.00 0.00 0.00 0.00 0.00 0.00 0.00 0.00 0.00 0.00 0.00 0.00 0.00 0.00 0.00 0.00 0.00 0.00 0.00 0.00 0.00
0.00 0.00 0.00 0.00 0.00 0.00 0.00 0.00 0.00 0.00 0.00 0.00 0.00 0.00 0.00 0.00 0.00 0.00 0.00 0.00 0.00 0.00
0.00 0.00 0.00 0.00 0.00 0.00 0.00 0.00 0.00 0.00 0.00 0.00 0.00 0.00 0.00 0.00 0.00 0.00 0.00 0.00 0.00 0.00
MSLP
1008.87 1008.17 1007.40 1006.77 1006.16 1005.42 1004.84 1004.42 1004.24 1004.04 1003.64 1003.32 1003.07 1002.98 1003.02 1002.97 1002.91 1002.96 1002.90 1003.89 1002.93 1002.77
1007.96 1007.22 1006.33 1005.61 1004.97 1004.17 1003.72 1003.35 1003.11 1002.90 1002.68 1002.62 1002.49 1002.29 1002.22 1002.04 1001.86 1001.96 1002.02 1001.81 1001.42 1002.13
1007.06 1006.17 1005.23 1004.28 1003.37 1002.57 1002.25 1002.20 1002.05 1001.77 1001.60 1001.49 1001.41 1001.32 1001.13 1001.02 1000.93 1000.63 1000.32 1000.24 1000.57 1001.64
1006.26 1005.24 1004.39 1003.47 1002.31 1001.15 1000.90 1000.96 1000.92 1000.73 1000.66 1000.55 1000.46 1000.30 1000.37 1000.41 1000.38 1000.32 999.70 999.73 999.71 1001.32
1005.89 1004.82 1003.93 1002.77 1001.63 1000.76 999.96 999.76 999.81 999.65 999.66 999.64 999.52 999.61 999.81 999.90 999.90 999.86 999.64 999.57 1000.02 1000.43
1005.75 1004.68 1003.67 1002.51 1001.25 1000.19 999.44 998.73 998.44 998.49 998.65 998.84 998.91 999.00 999.32 999.57 999.49 999.37 999.25 999.12 999.75 999.95
1005.89 1004.77 1003.66 1002.46 1001.15 999.89 998.81 998.14 997.75 997.61 997.62 997.80 998.03 998.22 998.63 998.96 998.95 998.79 998.66 998.77 999.29 1000.06
1006.07 1004.78 1003.66 1002.50 1001.30 1000.02 998.84 998.08 997.59 997.29 997.09 997.03 997.03 997.21 997.50 997.71 997.91 998.23 998.56 999.02 999.32 1000.10
1006.31 1005.19 1004.04 1002.86 1001.65 1000.43 999.53 998.72 998.03 997.54 997.13 996.72 996.51 996.47 996.47 996.76 997.55 998.08 998.47 999.28 1000.02 1000.69
1006.77 1005.75 1004.66 1003.67 1002.52 1001.33 1000.46 999.80 999.13 998.52 998.00 997.53 997.11 996.87 997.27 997.70 998.09 998.72 999.29 999.85 1000.22 1001.79
1007.27 1006.36 1005.41 1004.40 1003.47 1002.55 1001.62 1000.92 1000.43 999.93 999.58 999.15 998.83 998.34 998.60 998.88 999.22 999.68 1000.46 1001.14 1001.68 1002.27
1007.91 1007.12 1006.19 1005.38 1004.58 1003.85 1002.97 1002.05 1001.80 1001.47 1000.96 1000.63 1000.34 999.87 999.57 999.99 1000.98 1001.13 1001.88 1002.40 1003.64 1004.06
1008.51 1007.70 1006.96 1006.25 1005.54 1004.98 1004.35 1003.73 1003.37 1002.69 1002.45 1002.11 1001.59 1001.58 1001.34 1001.56 1002.08 1002.83 1004.12 1004.55 1005.18 1005.25
1009.01 1008.25 1007.64 1007.09 1006.45 1005.89 1005.34 1004.91 1004.62 1004.41 1004.21 1003.71 1003.72 1003.63 1003.41 1003.35 1004.43 1004.92 1005.25 1006.00 1006.37 1006.10
Thickness
5414 5406 5399 5391 5388 5390 5392 5399 5402 5408 5419 5433 5448 5463 5477 5490 5509 5525 5535 5534 5556 5575
5406 5396 5387 5383 5380 5379 5377 5378 5384 5392 5403 5414 5430 5447 5464 5480 5495 5512 5526 5542 5557 5564
5402 5393 5386 5383 5379 5374 5368 5365 5369 5379 5393 5406 5420 5437 5455 5473 5487 5504 5525 5544 5550 5552
5399 5391 5383 5378 5373 5371 5363 5359 5361 5370 5384 5400 5415 5430 5447 5464 5479 5493 5514 5531 5543 5540
5394 5385 5377 5373 5370 5364 5361 5358 5360 5369 5382 5398 5414 5426 5443 5458 5473 5486 5501 5516 5524 5533
5389 5379 5372 5371 5370 5366 5363 5363 5366 5375 5388 5399 5411 5420 5436 5451 5467 5479 5496 5507 5515 5526
5384 5374 5370 5371 5371 5373 5374 5374 5378 5386 5396 5404 5412 5420 5434 5448 5464 5477 5488 5497 5505 5509
5383 5379 5374 5374 5375 5378 5383 5386 5389 5396 5404 5412 5420 5429 5440 5454 5466 5473 5480 5488 5496 5500
5385 5383 5380 5378 5378 5381 5387 5392 5397 5405 5412 5420 5428 5438 5450 5460 5465 5471 5478 5481 5482 5486
5386 5383 5383 5381 5382 5383 5386 5391 5397 5404 5412 5420 5429 5438 5444 5450 5458 5462 5468 5472 5474 5469
5388 5385 5383 5383 5382 5382 5384 5387 5392 5399 5404 5411 5418 5428 5434 5440 5447 5453 5456 5457 5459 5462
5388 5385 5384 5382 5382 5380 5378 5382 5386 5392 5398 5402 5409 5418 5429 5434 5434 5441 5445 5444 5440 5443
5387 5387 5386 5385 5384 5382 5384 5384 5385 5390 5392 5397 5405 5410 5420 5425 5428 5429 5424 5425 5425 5431
5385 5387 5387 5386 5387 5386 5386 5387 5384 5386 5389 5395 5396 5404 5411 5415 5410 5412 5415 5415 5420 5428